Marshfield, MA

6:49 AM EDT on May 28, 2018 (GMT -0400)
Marshfield

Weather History for KGHG - February, 2013

Change the Weather History Date:

Thursday, February 14, 2013

  Actual Average (KPYM) Record (KPYM)
Temperature  
Mean Temperature 36 °F -  
Max Temperature 39 °F 40 °F 63 °F (1951)
Min Temperature 32 °F 16 °F -9 °F (2015)
Degree Days  
Heating Degree Days 30    
Moisture  
Dew Point 28 °F    
Average Humidity 76    
Maximum Humidity 100    
Minimum Humidity 52    
Precipitation  
Precipitation 0.05 in - - ()
Sea Level Pressure  
Sea Level Pressure 29.88 in    
Wind  
Wind Speed 4 mph (North)    
Max Wind Speed 12 mph    
Max Gust Speed 17 mph    
Visibility 9 miles    
Events Snow    
Averages and records for this station are not official NWS values.
T = Trace of Precipitation, MM = Missing Value Source: NWS Daily Summary

Daily Weather History Graph

Daily Weather History Graph

Search for Another Location

Airport or City:

Astronomy

Feb. 14, 2013 Rise Set
Actual Time 6:39 AM EST 5:14 PM EST
Civil Twilight 6:11 AM EST 5:43 PM EST
Nautical Twilight 5:38 AM EST 6:16 PM EST
Astronomical Twilight 5:05 AM EST 6:48 PM EST
Moon 8:34 AM EST (2/14) 10:20 PM EST (2/14)
Length of Visible Light 11h 32m
Length of Day
10h 34m
Waxing Crescent, 21% of the Moon is Illuminated
Feb 14
Waxing Crescent
Feb 17
First Quarter
Feb 25
Full
Mar 4
Last Quarter
Mar 11
New

Hourly Weather History & Observations

Time (EST) Temp. Windchill Dew Point Humidity Pressure Visibility Wind Dir Wind Speed Gust Speed Precip Events Conditions
12:15 AM 32.0 °F 28.7 °F 30.2 °F 93% 29.74 in 10.0 mi WSW 3.5 mph - N/A   Overcast
12:35 AM 32.0 °F - 30.2 °F 93% 29.73 in 10.0 mi Calm Calm - N/A   Scattered Clouds
12:55 AM 32.0 °F 27.5 °F 30.2 °F 93% 29.73 in 9.0 mi WNW 4.6 mph - N/A   Clear
1:15 AM 33.8 °F - 30.2 °F 87% 29.72 in 10.0 mi Calm Calm - N/A   Mostly Cloudy
1:35 AM 32.0 °F - 30.2 °F 93% 29.73 in 5.0 mi Calm Calm - N/A Snow Light Snow
1:55 AM 32.0 °F - 32.0 °F 100% 29.72 in 1.2 mi Calm Calm - N/A Snow Light Snow
2:15 AM 32.0 °F - 32.0 °F 100% 29.73 in 1.0 mi Calm Calm - N/A Snow Light Snow
2:35 AM 32.0 °F - 32.0 °F 100% 29.73 in 1.0 mi Calm Calm - N/A Snow Light Snow
2:55 AM 32.0 °F - 32.0 °F 100% 29.72 in 1.0 mi Calm Calm - N/A Snow Light Snow
3:15 AM 33.8 °F 30.8 °F 32.0 °F 93% 29.72 in 5.0 mi NNW 3.5 mph - N/A Snow Light Snow
3:35 AM 33.8 °F - 32.0 °F 93% 29.72 in 10.0 mi Calm Calm - N/A   Scattered Clouds
3:55 AM 33.8 °F - 32.0 °F 93% 29.71 in 10.0 mi Calm Calm - N/A   Clear
4:15 AM 32.0 °F 28.7 °F 32.0 °F 100% 29.73 in 8.0 mi WNW 3.5 mph - N/A   Clear
4:35 AM 32.0 °F 28.7 °F 32.0 °F 100% 29.74 in 10.0 mi WNW 3.5 mph - N/A   Partly Cloudy
4:55 AM 33.8 °F 29.6 °F 32.0 °F 93% 29.74 in 10.0 mi WNW 4.6 mph - N/A   Partly Cloudy
5:15 AM 32.0 °F 28.7 °F 30.2 °F 93% 29.74 in 10.0 mi WNW 3.5 mph - N/A   Clear
5:35 AM 33.8 °F 29.6 °F 32.0 °F 93% 29.74 in 10.0 mi WNW 4.6 mph - N/A   Mostly Cloudy
5:55 AM 35.6 °F 29.2 °F 32.0 °F 87% 29.75 in 10.0 mi NNW 8.1 mph - 0.01 in   Overcast
6:55 AM 37.4 °F 30.8 °F 30.2 °F 75% 29.78 in 10.0 mi North 9.2 mph 17.3 mph 0.02 in   Scattered Clouds
7:15 AM 37.4 °F 30.3 °F 28.4 °F 70% 29.80 in 10.0 mi North 10.4 mph - 0.01 in   Partly Cloudy
7:35 AM 39.2 °F 32.5 °F 28.4 °F 65% 29.80 in 10.0 mi North 10.4 mph 16.1 mph 0.01 in   Mostly Cloudy
7:55 AM 39.2 °F 33.0 °F 28.4 °F 65% 29.82 in 10.0 mi North 9.2 mph - 0.02 in   Overcast
8:15 AM 37.4 °F 32.1 °F 28.4 °F 70% 29.83 in 10.0 mi NNW 6.9 mph - N/A   Overcast
8:55 AM 37.4 °F 31.4 °F 30.2 °F 75% 29.85 in 10.0 mi NW 8.1 mph - N/A   Scattered Clouds
9:15 AM 39.2 °F 32.5 °F 30.2 °F 70% 29.87 in 10.0 mi NW 10.4 mph 16.1 mph N/A   Clear
9:35 AM 39.2 °F 33.0 °F 28.4 °F 65% 29.87 in 10.0 mi NW 9.2 mph - N/A   Clear
9:55 AM 39.2 °F 33.6 °F 30.2 °F 70% 29.88 in 10.0 mi NW 8.1 mph - N/A   Clear
10:15 AM 39.2 °F 32.0 °F 28.4 °F 65% 29.89 in 10.0 mi NNW 11.5 mph - N/A   Clear
10:35 AM 39.2 °F 33.6 °F 28.4 °F 65% 29.90 in 10.0 mi NW 8.1 mph - N/A   Clear
10:55 AM 39.2 °F 33.0 °F 26.6 °F 61% 29.90 in 10.0 mi NNW 9.2 mph - N/A   Clear
11:15 AM 39.2 °F 33.0 °F 24.8 °F 56% 29.91 in 10.0 mi NNW 9.2 mph - N/A   Clear
11:35 AM 39.2 °F 32.5 °F 24.8 °F 56% 29.91 in 10.0 mi NNW 10.4 mph - N/A   Clear
11:55 AM 39.2 °F 33.6 °F 23.0 °F 52% 29.92 in 10.0 mi NNW 8.1 mph - N/A   Clear
12:15 PM 39.2 °F 35.9 °F 23.0 °F 52% 29.91 in 10.0 mi North 4.6 mph - N/A   Clear
12:35 PM 39.2 °F 32.5 °F 23.0 °F 52% 29.91 in 10.0 mi NNE 10.4 mph - N/A   Clear
12:55 PM 39.2 °F 33.6 °F 23.0 °F 52% 29.91 in 10.0 mi NNE 8.1 mph - N/A   Clear
1:15 PM 39.2 °F 34.2 °F 23.0 °F 52% 29.92 in 10.0 mi NE 6.9 mph - N/A   Clear
1:55 PM 39.2 °F 33.6 °F 23.0 °F 52% 29.92 in 10.0 mi NE 8.1 mph - N/A   Clear
2:15 PM 39.2 °F 33.0 °F 24.8 °F 56% 29.92 in 10.0 mi ENE 9.2 mph - N/A   Clear
2:35 PM 39.2 °F 33.6 °F 24.8 °F 56% 29.93 in 10.0 mi ENE 8.1 mph - N/A   Clear
2:55 PM 39.2 °F 33.6 °F 26.6 °F 61% 29.93 in 10.0 mi East 8.1 mph - N/A   Clear
3:15 PM 39.2 °F 33.6 °F 24.8 °F 56% 29.93 in 10.0 mi East 8.1 mph - N/A   Clear
3:35 PM 39.2 °F 34.2 °F 24.8 °F 56% 29.94 in 10.0 mi East 6.9 mph - N/A   Clear
3:55 PM 39.2 °F 35.9 °F 26.6 °F 61% 29.95 in 10.0 mi ESE 4.6 mph - N/A   Clear
4:15 PM 39.2 °F 33.6 °F 26.6 °F 61% 29.96 in 10.0 mi ESE 8.1 mph - N/A   Clear
4:35 PM 37.4 °F 32.8 °F 28.4 °F 70% 29.96 in 10.0 mi SE 5.8 mph - N/A   Clear
4:55 PM 37.4 °F 32.8 °F 28.4 °F 70% 29.97 in 10.0 mi ESE 5.8 mph - N/A   Clear
5:15 PM 37.4 °F 33.8 °F 28.4 °F 70% 29.98 in 10.0 mi SE 4.6 mph - N/A   Clear
5:35 PM 35.6 °F 31.7 °F 28.4 °F 75% 29.98 in 10.0 mi SE 4.6 mph - N/A   Clear
5:55 PM 35.6 °F 30.7 °F 28.4 °F 75% 29.99 in 10.0 mi SE 5.8 mph - N/A   Clear
6:15 PM 35.6 °F 31.7 °F 28.4 °F 75% 30.00 in 10.0 mi SSE 4.6 mph - N/A   Clear
6:35 PM 35.6 °F 31.7 °F 28.4 °F 75% 30.00 in 10.0 mi SSE 4.6 mph - N/A   Clear
6:55 PM 33.8 °F 30.8 °F 26.6 °F 75% 30.01 in 10.0 mi SE 3.5 mph - N/A   Clear
7:15 PM 33.8 °F - 26.6 °F 75% 30.00 in 10.0 mi Calm Calm - N/A   Clear
7:35 PM 32.0 °F 28.7 °F 26.6 °F 80% 30.00 in 10.0 mi SSE 3.5 mph - N/A   Clear
7:55 PM 32.0 °F 27.5 °F 26.6 °F 80% 30.00 in 10.0 mi South 4.6 mph - N/A   Clear
8:15 PM 32.0 °F 27.5 °F 26.6 °F 80% 30.01 in 10.0 mi South 4.6 mph - N/A   Clear
8:35 PM 33.8 °F 29.6 °F 26.6 °F 75% 30.01 in 10.0 mi South 4.6 mph - N/A   Clear
8:55 PM 33.8 °F 30.8 °F 28.4 °F 81% 30.01 in 10.0 mi South 3.5 mph - N/A   Clear
9:15 PM 32.0 °F 27.5 °F 28.4 °F 87% 30.02 in 10.0 mi South 4.6 mph - N/A   Clear
9:35 PM 33.8 °F 29.6 °F 28.4 °F 81% 30.02 in 10.0 mi SSW 4.6 mph - N/A   Clear
10:15 PM 32.0 °F 27.5 °F 28.4 °F 87% 30.01 in 10.0 mi South 4.6 mph - N/A   Clear
10:55 PM 32.0 °F 28.7 °F 28.4 °F 87% 30.02 in 10.0 mi SSW 3.5 mph - N/A   Clear
11:15 PM 32.0 °F - 28.4 °F 87% 30.02 in 10.0 mi Calm Calm - N/A   Clear
11:55 PM 32.0 °F 28.7 °F 28.4 °F 87% 30.02 in 10.0 mi South 3.5 mph - N/A   Clear